Park Rapids, MN

6:06 AM CDT on March 28, 2017 (GMT -0500)
Park Rapids Municipal

Weather History for KPKD - November, 2011

Change the Weather History Date:

Thursday, November 10, 2011

  Actual Average Record
Temperature  
Mean Temperature 29 °F -  
Max Temperature 34 °F 35 °F 61 °F (2016)
Min Temperature 24 °F 20 °F -5 °F (1979)
Degree Days  
Heating Degree Days 36    
Moisture  
Dew Point 24 °F    
Average Humidity 78    
Maximum Humidity 86    
Minimum Humidity 56    
Precipitation  
Precipitation 0.00 in - - ()
Sea Level Pressure  
Sea Level Pressure 30.02 in    
Wind  
Wind Speed 13 mph (WNW)    
Max Wind Speed 20 mph    
Max Gust Speed 25 mph    
Visibility 9 miles    
Events Snow    
Averages and records for this station are not official NWS values.
T = Trace of Precipitation, MM = Missing Value Source: NWS Daily Summary

Daily Weather History Graph

Daily Weather History Graph

Search for Another Location

Airport or City:

Trip Planner

Search our weather history database for the weather conditions in past years. The results will help you decide how hot, cold, wet, or windy it might be!

Date:

Astronomy

Nov. 10, 2011 Rise Set
Actual Time 7:15 AM CST 4:52 PM CST
Civil Twilight 6:43 AM CST 5:24 PM CST
Nautical Twilight 6:06 AM CST 6:01 PM CST
Astronomical Twilight 5:30 AM CST 6:36 PM CST
Moon 4:36 PM CST (11/10) 7:12 AM CST (11/10)
Length of Visible Light 10h 41m
Length of Day
9h 36m
Full, 100% of the Moon is Illuminated
Nov 10
Full
Nov 10
Full
Nov 18
Last Quarter
Nov 25
New
Dec 2
First Quarter

Hourly Weather History & Observations

Time (CST) Temp. Windchill Dew Point Humidity Pressure Visibility Wind Dir Wind Speed Gust Speed Precip Events Conditions
12:46 AM 30.2 °F 19.8 °F 26.6 °F 86% 29.97 in 6.0 mi NW 13.8 mph - 0.00 in Snow Light Snow
12:53 AM 30.9 °F 20.2 °F 27.0 °F 85% 30.03 in 5.0 mi NW 15.0 mph 24.2 mph 0.00 in Snow Light Snow
1:21 AM 30.2 °F 18.9 °F 26.6 °F 86% 29.97 in 4.0 mi NW 16.1 mph 20.7 mph 0.00 in Snow Light Snow
1:53 AM 30.9 °F 20.7 °F 26.1 °F 82% 30.03 in 6.0 mi NW 13.8 mph 24.2 mph 0.00 in Snow Light Snow
2:29 AM 30.2 °F 18.5 °F 26.6 °F 86% 29.98 in 10.0 mi NW 17.3 mph 25.3 mph 0.00 in   Overcast
2:43 AM 30.2 °F 19.3 °F 26.6 °F 86% 29.99 in 10.0 mi NW 15.0 mph - 0.00 in   Overcast
2:53 AM 30.9 °F 18.7 °F 26.1 °F 82% 30.04 in 10.0 mi NW 19.6 mph 24.2 mph 0.00 in   Overcast
3:53 AM 30.9 °F 19.8 °F 26.1 °F 82% 30.04 in 10.0 mi NW 16.1 mph 24.2 mph N/A   Overcast
4:04 AM 30.2 °F 18.5 °F 26.6 °F 86% 29.99 in 10.0 mi NW 17.3 mph 23.0 mph N/A   Overcast
4:53 AM 30.0 °F 19.5 °F 26.1 °F 85% 30.06 in 9.0 mi NW 13.8 mph 23.0 mph 0.00 in Snow Light Snow
5:53 AM 30.2 °F 18.9 °F 26.6 °F 86% 30.00 in 10.0 mi NW 16.1 mph - N/A   Overcast
6:53 AM 30.2 °F 19.3 °F 24.8 °F 80% 30.02 in 10.0 mi NW 15.0 mph 24.2 mph N/A   Overcast
7:15 AM 30.2 °F 19.8 °F 24.8 °F 80% 30.02 in 10.0 mi NW 13.8 mph 20.7 mph N/A   Overcast
7:48 AM 30.2 °F 20.8 °F 24.8 °F 80% 30.03 in 10.0 mi NW 11.5 mph 19.6 mph N/A   Overcast
7:53 AM 30.0 °F 21.1 °F 25.0 °F 82% 30.09 in 10.0 mi NNW 10.4 mph 19.6 mph N/A   Overcast
8:51 AM 30.2 °F 19.8 °F 24.8 °F 80% 30.04 in 10.0 mi NW 13.8 mph - N/A   Overcast
8:53 AM 30.0 °F 20.5 °F 25.0 °F 82% 30.10 in 10.0 mi NW 11.5 mph - N/A   Overcast
9:53 AM 30.9 °F 21.7 °F 25.0 °F 79% 30.10 in 10.0 mi NW 11.5 mph - N/A   Overcast
10:53 AM 30.9 °F 22.8 °F 25.0 °F 79% 30.09 in 10.0 mi NW 9.2 mph - N/A   Overcast
11:53 AM 30.9 °F 21.2 °F 25.0 °F 79% 30.09 in 10.0 mi WNW 12.7 mph - N/A   Overcast
12:53 PM 33.1 °F 21.9 °F 21.9 °F 64% 30.07 in 10.0 mi NW 18.4 mph 23.0 mph N/A   Mostly Cloudy
1:26 PM 33.8 °F 23.9 °F 21.2 °F 60% 30.01 in 10.0 mi NW 15.0 mph 23.0 mph N/A   Mostly Cloudy
1:53 PM 34.0 °F 25.0 °F 21.0 °F 59% 30.06 in 10.0 mi WNW 12.7 mph - N/A   Scattered Clouds
2:53 PM 34.0 °F 25.0 °F 21.0 °F 59% 30.05 in 10.0 mi NW 12.7 mph - N/A   Scattered Clouds
3:53 PM 34.0 °F 25.5 °F 19.9 °F 56% 30.04 in 10.0 mi WNW 11.5 mph - N/A   Clear
4:53 PM 28.0 °F 22.8 °F 19.0 °F 69% 30.04 in 10.0 mi West 4.6 mph - N/A   Clear
5:53 PM 26.1 °F 20.5 °F 19.0 °F 75% 30.02 in 10.0 mi SSW 4.6 mph - N/A   Clear
6:53 PM 26.1 °F 20.5 °F 19.0 °F 75% 30.00 in 10.0 mi South 4.6 mph - N/A   Clear
7:53 PM 24.1 °F 17.0 °F 19.0 °F 81% 29.99 in 10.0 mi South 5.8 mph - N/A   Scattered Clouds
8:53 PM 26.1 °F 20.5 °F 19.9 °F 78% 29.96 in 10.0 mi SSE 4.6 mph - N/A   Partly Cloudy
9:53 PM 25.0 °F 18.1 °F 19.9 °F 81% 29.95 in 10.0 mi South 5.8 mph - N/A   Partly Cloudy
10:53 PM 28.0 °F 20.8 °F 21.0 °F 75% 29.92 in 10.0 mi SSE 6.9 mph - N/A   Partly Cloudy
11:53 PM 28.0 °F 20.0 °F 21.0 °F 75% 29.88 in 10.0 mi South 8.1 mph - N/A   Overcast